TimeEST,TemperatureF,Dew PointF,Humidity,Sea Level PressureIn,VisibilityMPH,Wind Direction,Wind SpeedMPH,Gust SpeedMPH,PrecipitationIn,Events,Conditions,WindDirDegrees,DateUTC
12:51 AM,24.1,15.1,69,29.68,10.0,West,11.5,-,0.00,,Mostly Cloudy,280,2013-02-01 05:51:00
1:51 AM,24.1,14.0,65,29.69,10.0,WSW,11.5,18.4,N/A,,Partly Cloudy,240,2013-02-01 06:51:00
2:51 AM,24.1,12.0,60,29.70,10.0,WSW,9.2,20.7,N/A,,Partly Cloudy,240,2013-02-01 07:51:00
3:51 AM,24.1,9.0,53,29.69,10.0,WSW,12.7,-,N/A,,Mostly Cloudy,250,2013-02-01 08:51:00
4:51 AM,23.0,7.0,50,29.71,10.0,WSW,8.1,-,N/A,,Partly Cloudy,250,2013-02-01 09:51:00
5:51 AM,23.0,6.1,48,29.73,10.0,WSW,8.1,-,N/A,,Partly Cloudy,250,2013-02-01 10:51:00
6:51 AM,21.9,6.1,51,29.77,10.0,West,6.9,-,N/A,,Scattered Clouds,260,2013-02-01 11:51:00
7:51 AM,21.0,6.1,53,29.81,10.0,West,6.9,-,N/A,,Scattered Clouds,260,2013-02-01 12:51:00
8:51 AM,25.0,10.0,53,29.83,10.0,West,17.3,24.2,N/A,,Mostly Cloudy,260,2013-02-01 13:51:00
9:51 AM,25.0,10.0,53,29.86,10.0,West,15.0,24.2,N/A,,Mostly Cloudy,270,2013-02-01 14:51:00
10:51 AM,23.0,17.1,78,29.88,1.5,NW,16.1,23.0,0.00,Snow,Light Snow,310,2013-02-01 15:51:00
11:08 AM,23.0,12.2,63,29.87,10.0,WNW,13.8,25.3,0.00,,Mostly Cloudy,290,2013-02-01 16:08:00
11:51 AM,26.1,10.9,53,29.87,10.0,WNW,27.6,32.2,0.00,,Mostly Cloudy,290,2013-02-01 16:51:00
12:51 PM,25.0,9.0,51,29.87,10.0,WNW,20.7,31.1,N/A,,Mostly Cloudy,290,2013-02-01 17:51:00
1:51 PM,24.1,7.0,48,29.89,10.0,WNW,26.5,39.1,N/A,,Mostly Cloudy,290,2013-02-01 18:51:00
2:51 PM,24.1,8.1,51,29.92,10.0,WNW,16.1,27.6,N/A,,Mostly Cloudy,290,2013-02-01 19:51:00
3:51 PM,24.1,6.1,46,29.96,10.0,West,20.7,27.6,0.00,Snow,Light Snow,280,2013-02-01 20:51:00
4:51 PM,21.9,3.9,46,30.00,10.0,WNW,18.4,29.9,0.00,,Mostly Cloudy,290,2013-02-01 21:51:00
5:51 PM,21.0,3.9,48,30.04,10.0,WNW,18.4,26.5,N/A,,Scattered Clouds,300,2013-02-01 22:51:00
6:51 PM,19.9,7.0,57,30.07,10.0,West,8.1,-,N/A,,Partly Cloudy,280,2013-02-01 23:51:00
7:51 PM,19.9,9.0,62,30.09,10.0,SW,6.9,-,0.00,Snow,Light Snow,230,2013-02-02 00:51:00
8:51 PM,19.4,10.4,68,30.09,10.0,West,12.7,21.9,N/A,Snow,Light Snow,260,2013-02-02 01:51:00
9:51 PM,19.0,12.9,77,30.12,1.0,WNW,11.5,-,0.00,Snow,Light Snow,300,2013-02-02 02:51:00
9:57 PM,19.4,12.2,74,30.11,5.0,WNW,10.4,-,0.00,Snow,Light Snow,300,2013-02-02 02:57:00
10:51 PM,19.9,10.9,68,30.15,8.0,WNW,12.7,24.2,0.00,Snow,Light Snow,300,2013-02-02 03:51:00
11:00 PM,19.4,12.2,74,30.14,1.5,WNW,19.6,29.9,0.00,Snow,Light Snow,300,2013-02-02 04:00:00
11:25 PM,17.6,12.2,79,30.15,6.0,WNW,11.5,-,0.00,Snow,Light Snow,290,2013-02-02 04:25:00
11:51 PM,19.0,7.0,59,30.18,10.0,WNW,21.9,27.6,0.00,,Scattered Clouds,300,2013-02-02 04:51:00